This demonstration page uses our WeatherBlox Daily Observations layout. Learn more.

39.08367, -84.50855

Hourly Observations for August 5, 2019

Temp ( °F °C ) Dew Point ( °F °C ) Humidity (%) Winds ( mph kmh ) Pressure ( in mb ) Visibility ( mi km ) Precip ( " mm )
12:53 am 00:53 Clear 68 20 65 18.3 90 90 Calm 29.97 1015 10 16.09344 0 0
1:53 am 01:53 Clear 67 19.4 65 18.3 93 93 Calm 29.97 1015 10 16.09344 0 0
2:53 am 02:53 Clear 66 18.9 65 18.3 96 96 Calm 29.97 1015 10 16.09344 0 0
3:53 am 03:53 Clear 65 18.3 64 17.8 97 97 Calm 29.97 1015 9 14.484096 0 0
4:53 am 04:53 Clear 66 18.9 65 18.3 96 96 Calm 29.97 1015 8 12.874752 0 0
5:53 am 05:53 Clear 65 18.3 64 17.8 97 97 Calm 29.97 1015 7 11.265408 0 0
6:53 am 06:53 Partly Cloudy with Patchy Fog 65 18.3 64 17.8 97 97 Calm 29.97 1015 7 11.265408 0 0
7:02 am 07:02 Partly Cloudy with Patchy Fog 65 18.3 64 17.8 97 97 Calm 29.97 1015 7 11.265408 0 0
7:25 am 07:25 Mostly Cloudy with Mist and Fog 65 18.3 64 17.8 97 97 Calm 29.97 1015 4 6.437376 0 0
7:53 am 07:53 Partly Cloudy 67 19.4 66 18.9 97 97 Calm 29.97 1015 8 12.874752 0 0
8:53 am 08:53 Sunny 71 21.7 68 20 90 90 Calm 29.97 1015 10 16.09344 0 0
9:53 am 09:53 Sunny 76 24.4 68 20 77 77 Calm 30 1016 10 16.09344 0 0
10:53 am 10:53 Sunny 81 27.2 68 20 65 65 Calm 30 1016 10 16.09344 0 0
11:53 am 11:53 Sunny 84 28.9 66 18.9 55 55 S 3 6 29.97 1015 10 16.09344 0 0
12:53 pm 12:53 Partly Cloudy 86 30 66 18.9 51 51 ESE 5 7 29.97 1015 10 16.09344 0 0
1:53 pm 13:53 Partly Cloudy 85 29.4 65 18.3 51 51 SW 10 17 29.94 1014 10 16.09344 0 0
2:53 pm 14:53 Sunny 87 30.6 66 18.9 50 50 S 9 15 29.94 1014 10 16.09344 0 0
3:53 pm 15:53 Mostly Cloudy 89 31.7 65 18.3 45 45 SSW 9 15 29.91 1013 10 16.09344 0 0
4:53 pm 16:53 Partly Cloudy 89 31.7 64 17.8 43 43 WSW 7 11 29.91 1013 10 16.09344 0 0
5:53 pm 17:53 Partly Cloudy 89 31.7 65 18.3 45 45 WSW 3 6 29.88 1012 10 16.09344 0 0
6:53 pm 18:53 Partly Cloudy 86 30 64 17.8 48 48 WSW 8 13 29.88 1012 10 16.09344 0 0
7:53 pm 19:53 Partly Cloudy 83 28.3 65 18.3 55 55 SW 8 13 29.88 1012 10 16.09344 0 0
8:53 pm 20:53 Partly Cloudy 80 26.7 64 17.8 58 58 WSW 6 9 29.88 1012 10 16.09344 0 0
9:53 pm 21:53 Mostly Clear 75 23.9 66 18.9 74 74 Calm 29.88 1012 10 16.09344 0 0
10:53 pm 22:53 Clear 71 21.7 66 18.9 84 84 Calm 29.88 1012 10 16.09344 0 0
11:53 pm 23:53 Clear 69 20.6 67 19.4 93 93 Calm 29.91 1013 10 16.09344 0 0

Powered by AerisWeather